Weather History for YBCS - September, 2013

Change the Weather History Date:

Monday, September 9, 2013

  Actual Average Record
Temperature  
Mean Temperature 72 °F -  
Max Temperature 80 °F 83 °F 86 °F (1997)
Min Temperature 65 °F 67 °F 59 °F (2006)
Cooling Degree Days 8    
Growing Degree Days 22 (Base 50)    
Moisture  
Dew Point 63 °F    
Average Humidity 75    
Maximum Humidity 100    
Minimum Humidity 42    
Precipitation  
Precipitation 0.01 in 0.05 in - ()
Sea Level Pressure  
Sea Level Pressure 30.04 in    
Wind  
Wind Speed 9 mph ()    
Max Wind Speed 17 mph    
Max Gust Speed -    
Visibility 6.1 miles    
Events Rain    
Averages and records for this station are not official NWS values.
T = Trace of Precipitation, MM = Missing Value Source: Averaged Metar Reports

Daily Weather History Graph

Daily Weather History Graph

Search for Another Location

Airport or City:

Trip Planner

Search our weather history database for the weather conditions in past years. The results will help you decide how hot, cold, wet, or windy it might be!

Date:

Astronomy

Sep. 09, 2013 Rise Set
Actual Time 6:17 AM AEST 6:11 PM AEST
Civil Twilight 5:55 AM AEST 6:33 PM AEST
Nautical Twilight 5:30 AM AEST 6:58 PM AEST
Astronomical Twilight 5:05 AM AEST 7:23 PM AEST
Moon 8:34 AM AEST (9/9) 9:31 PM AEST (9/9)
Length of Visible Light 12h 37m
Length of Day
11h 53m
Waxing Crescent, 14% of the Moon is Illuminated
Sep 9
Waxing Crescent
Sep 13
First Quarter
Sep 19
Full
Sep 27
Last Quarter
Oct 5
New

Hourly Weather History & Observations

Time (AEST) Temp. Heat Index Dew Point Humidity Pressure Visibility Wind Dir Wind Speed Gust Speed Precip Events Conditions
12:00 AM 67 °F - 64 °F 86% 30.12 in - SSE 9.2 mph - -   Overcast
12:00 AM 68.0 °F - 64.4 °F 88% 30.09 in 6.2 mi SSE 9.2 mph - N/A Rain Light Rain Showers
12:30 AM 66.2 °F - 64.4 °F 94% 30.09 in 5.6 mi SE 8.1 mph - N/A Rain Light Rain Showers
12:50 AM 66.2 °F - 64.4 °F 94% 30.09 in 3.7 mi SE 9.2 mph - N/A Rain Light Rain Showers
1:00 AM 66 °F - 65 °F 95% 30.11 in - ESE 6.9 mph - -  
1:00 AM 66.2 °F - 64.4 °F 94% 30.09 in 3.7 mi ESE 6.9 mph - N/A Rain Light Rain Showers
1:05 AM 66.2 °F - 64.4 °F 94% 30.09 in 2.8 mi ESE 6.9 mph - N/A Rain Rain Showers
1:23 AM 66.2 °F - 64.4 °F 94% 30.09 in 3.7 mi SSE 5.8 mph - N/A Rain Light Rain Showers
1:30 AM 66.2 °F - 64.4 °F 94% 30.09 in 2.8 mi SSE 5.8 mph - N/A Rain Rain Showers
1:46 AM 66.2 °F - 64.4 °F 94% 30.09 in 4.3 mi SSE 5.8 mph - N/A Rain Light Rain Showers
2:00 AM 66.2 °F - 64.4 °F 94% 30.06 in 3.1 mi SSE 6.9 mph - N/A Rain Rain Showers
2:19 AM 66.2 °F - 64.4 °F 94% 30.06 in 3.1 mi SSE 8.1 mph - N/A Rain Light Rain Showers
2:30 AM 66.2 °F - 64.4 °F 94% 30.06 in 6.2 mi South 10.4 mph - N/A   Overcast
3:00 AM 68 °F - 63 °F 80% 30.07 in - South 12.7 mph - -   Overcast
3:00 AM 68.0 °F - 62.6 °F 83% 30.06 in 6.2 mi South 12.7 mph - N/A   Mostly Cloudy
3:30 AM 68.0 °F - 62.6 °F 83% 30.04 in 6.2 mi SSW 9.2 mph - N/A   Scattered Clouds
4:00 AM 67 °F - 64 °F 86% 30.06 in - SSE 9.2 mph - -  
4:00 AM 66.2 °F - 64.4 °F 94% 30.04 in 6.2 mi SSE 9.2 mph - N/A Rain Light Rain Showers
4:15 AM 66.2 °F - 64.4 °F 94% 30.04 in 3.7 mi SSE 9.2 mph - N/A Rain Rain Showers
4:30 AM 66.2 °F - 66.2 °F 100% 30.04 in 3.7 mi SSE 9.2 mph - N/A Rain Light Rain Showers
4:43 AM 66.2 °F - 66.2 °F 100% 30.04 in 4.3 mi SSE 9.2 mph - N/A Rain Light Rain Showers
5:00 AM 66.2 °F - 64.4 °F 94% 30.06 in 5.6 mi SSE 6.9 mph - N/A Rain Light Rain Showers
5:19 AM 66.2 °F - 64.4 °F 94% 30.06 in 3.7 mi SE 6.9 mph - N/A Rain Light Rain Showers
5:30 AM 66.2 °F - 66.2 °F 100% 30.06 in 3.7 mi SSE 8.1 mph - N/A Rain Light Rain Showers
6:00 AM 67 °F - 63 °F 82% 30.06 in 4 mi South 11.5 mph - -   Mostly Cloudy
6:00 AM 68.0 °F - 62.6 °F 83% 30.06 in 3.7 mi South 11.5 mph - N/A   Mostly Cloudy
6:30 AM 68.0 °F - 62.6 °F 83% 30.06 in 6.2 mi SSW 12.7 mph - N/A   Mostly Cloudy
7:00 AM 67 °F - 65 °F 90% 30.08 in - SSE 17.3 mph - -  
7:00 AM 68.0 °F - 64.4 °F 88% 30.06 in 6.2 mi SSE 17.3 mph - N/A   Mostly Cloudy
7:30 AM 68.0 °F - 62.6 °F 83% 30.06 in 6.2 mi South 13.8 mph - N/A   Mostly Cloudy
8:00 AM 68.0 °F - 64.4 °F 88% 30.09 in 6.2 mi South 13.8 mph - N/A   Mostly Cloudy
8:30 AM 68.0 °F - 64.4 °F 88% 30.09 in 6.2 mi South 12.7 mph - N/A   Mostly Cloudy
9:00 AM 69 °F - 64 °F 81% 30.12 in 16 mi South 13.8 mph - -   Partly Cloudy
9:00 AM 69.8 °F - 64.4 °F 83% 30.09 in 6.2 mi South 13.8 mph - N/A   Mostly Cloudy
9:30 AM 69.8 °F - 64.4 °F 83% 30.09 in 6.2 mi South 12.7 mph - N/A   Mostly Cloudy
10:00 AM 74 °F - 65 °F 65% 30.11 in - South 11.5 mph - -  
10:00 AM 73.4 °F - 64.4 °F 73% 30.09 in 6.2 mi South 11.5 mph - N/A   Mostly Cloudy
10:30 AM 75.2 °F - 64.4 °F 69% 30.09 in 6.2 mi South 15.0 mph - N/A   Scattered Clouds
11:00 AM 77.0 °F - 62.6 °F 61% 30.06 in 6.2 mi SSE 11.5 mph - N/A   Partly Cloudy
11:30 AM 78.8 °F - 62.6 °F 57% 30.06 in 6.2 mi SSE 13.8 mph - N/A   Partly Cloudy
12:00 PM 80 °F - 61 °F 42% 30.06 in 19 mi ESE 11.5 mph - -   Partly Cloudy
12:00 PM 80.6 °F 81.5 °F 60.8 °F 51% 30.04 in 6.2 mi ESE 11.5 mph - N/A   Partly Cloudy
12:30 PM 80.6 °F 81.1 °F 59.0 °F 48% 30.04 in 6.2 mi SSE 12.7 mph - N/A   Partly Cloudy
1:00 PM 78 °F - 60 °F 44% 30.02 in - ESE 12.7 mph - -  
1:00 PM 78.8 °F - 60.8 °F 54% 30.01 in 6.2 mi ESE 12.7 mph - N/A   Partly Cloudy
1:30 PM 80.6 °F 81.5 °F 60.8 °F 51% 29.98 in 6.2 mi SE 13.8 mph - N/A   Partly Cloudy
2:00 PM 78.8 °F - 60.8 °F 54% 29.95 in 6.2 mi ESE 13.8 mph - N/A   Partly Cloudy
2:30 PM 78.8 °F - 60.8 °F 54% 29.95 in 6.2 mi ESE 13.8 mph - N/A   Partly Cloudy
3:00 PM 79 °F - 60 °F 43% 29.96 in 19 mi ESE 16.1 mph - -   Partly Cloudy
3:00 PM 78.8 °F - 60.8 °F 54% 29.95 in 6.2 mi ESE 16.1 mph - N/A   Partly Cloudy
3:30 PM 77.0 °F - 60.8 °F 57% 29.95 in 6.2 mi ESE 16.1 mph - N/A   Scattered Clouds
4:00 PM 76 °F - 62 °F 54% 29.97 in - ESE 13.8 mph - -  
4:00 PM 77.0 °F - 62.6 °F 61% 29.95 in 6.2 mi ESE 13.8 mph - N/A   Scattered Clouds
4:30 PM 75.2 °F - 60.8 °F 61% 29.95 in 6.2 mi ESE 12.7 mph - N/A   Scattered Clouds
5:00 PM 75.2 °F - 62.6 °F 65% 29.95 in 6.2 mi SE 12.7 mph - N/A   Mostly Cloudy
5:30 PM 75.2 °F - 62.6 °F 65% 29.95 in 6.2 mi ESE 12.7 mph - N/A   Mostly Cloudy
6:00 PM 74 °F - 63 °F 59% 29.96 in - SSE 10.4 mph - -   Overcast
6:00 PM 73.4 °F - 62.6 °F 69% 29.95 in 6.2 mi SSE 10.4 mph - N/A   Mostly Cloudy
6:30 PM 73.4 °F - 62.6 °F 69% 29.98 in 6.2 mi SSE 10.4 mph - N/A   Mostly Cloudy
7:00 PM 73 °F - 62 °F 60% 30.00 in - SSE 10.4 mph - -  
7:00 PM 73.4 °F - 62.6 °F 69% 29.98 in 6.2 mi SSE 10.4 mph - N/A   Mostly Cloudy
7:30 PM 73.4 °F - 62.6 °F 69% 30.01 in 6.2 mi SSE 5.8 mph - N/A   Mostly Cloudy
8:00 PM 73.4 °F - 62.6 °F 69% 30.01 in 6.2 mi South 6.9 mph - N/A   Mostly Cloudy
8:30 PM 73.4 °F - 62.6 °F 69% 30.01 in 6.2 mi SSE 5.8 mph - N/A   Mostly Cloudy
9:00 PM 72 °F - 63 °F 66% 30.03 in - South 5.8 mph - -   Overcast
9:00 PM 71.6 °F - 62.6 °F 73% 30.01 in 6.2 mi South 5.8 mph - N/A   Mostly Cloudy
9:30 PM 73.4 °F - 62.6 °F 69% 30.01 in 6.2 mi South 4.6 mph - N/A   Mostly Cloudy
10:00 PM 73 °F - 62 °F 61% 30.04 in - South 5.8 mph - -  
10:00 PM 73.4 °F - 62.6 °F 69% 30.04 in 6.2 mi South 5.8 mph - N/A   Scattered Clouds
10:30 PM 73.4 °F - 62.6 °F 69% 30.01 in 6.2 mi South 5.8 mph - N/A   Scattered Clouds
11:00 PM 73.4 °F - 62.6 °F 69% 30.01 in 6.2 mi South 5.8 mph - N/A   Mostly Cloudy